Regional Weather Roundup
Issued by NWS Sioux Falls, SD

Home | Current Version | Previous Version | Graphics & Text | Print | Product List | Glossary On
Versions: 1 2 3 4 5 6 7 8 9 10 11 12 13 14 15 16 17 18 19 20 21 22 23 24 25 26 27 28 29 30 31 32 33 34 35 36 37 38 39 40 41 42 43 44 45 46 47 48 49 50
568
ASUS43 KFSD 192110
RWRFSD

WEATHER ROUNDUP FOR SE SOUTH DAKOTA/SW MINNESOTA/NW IOWA
NATIONAL WEATHER SERVICE SIOUX FALLS SD
400 PM CDT THU OCT 19 2017

NOTE: "FAIR" INDICATES FEW OR NO CLOUDS BELOW 12,000 FEET WITH NO
SIGNIFICANT WEATHER AND OR OBSTRUCTIONS TO VISIBILITY.


SDZ038>040-050-052>070-192200-
SOUTHEAST SOUTH DAKOTA

CITY           SKY/WX    TMP DP  RH WIND       PRES   REMARKS
BROOKINGS      SUNNY     72  48  42 S17G26    29.88F
CHAMBERLAIN    SUNNY     81  46  28 S16       29.81F
HURON          SUNNY     76  44  32 S16G23    29.82F
MADISON        FAIR      72  50  46 S24G30    29.89S
MITCHELL       SUNNY     79  44  28 S15G23    29.84F
SIOUX FALLS    MOSUNNY   74  52  46 S16       29.91F
WINNER         FAIR      84  42  22 S18G25    29.81F
YANKTON        SUNNY     77  50  38 S16G22    29.91F
$$

MNZ071-072-080-081-089-090-097-098-192200-
SOUTHWEST MINNESOTA

CITY           SKY/WX    TMP DP  RH WIND       PRES   REMARKS
FAIRMONT       SUNNY     72  41  32 S21       29.99F
JACKSON        SUNNY     72  39  30 S15G25    29.98F
LUVERNE        SUNNY     73  43  33 S16G23    29.94F
MARSHALL       SUNNY     76  47  35 S18G26    29.89F
MONTEVIDEO     SUNNY     79  45  29 SW14G20   29.87F
PIPESTONE      SUNNY     73  43  33 S17       29.92F
REDWOOD FALLS  SUNNY     74  40  29 S22       29.91F
TRACY          SUNNY     75  46  34 S14G24    29.92S
WORTHINGTON    SUNNY     74  44  34 S20G25    29.96F
$$

IAZ001>003-012>014-020>022-031-032-NEZ013-014-SDZ071-192200-
NORTHWEST IOWA

CITY           SKY/WX    TMP DP  RH WIND       PRES   REMARKS
CHEROKEE       SUNNY     74  49  41 S10       29.98S
DENISON        SUNNY     77  52  41 S9G20     30.00F
ESTHERVILLE    SUNNY     72  43  35 S18G25    29.99
LE MARS        SUNNY     75  50  41 S14G21    29.95F
ORANGE CITY    SUNNY     75  48  38 S14       29.96F
SHELDON        SUNNY     75  46  35 S13G22    29.95F
SIOUX CITY     SUNNY     76  52  43 S12G21    29.96F
SPENCER        SUNNY     75  44  33 S17G25    29.98F
STORM LAKE     SUNNY     75  46  35 S15G23    29.99F
$$

ABBREVIATIONS USED IN REMARKS
   TC - TEMPERATURE IN CELSIUS
  WCI - WIND CHILL INDEX
   HX - HEAT INDEX
  VSB - VISIBILITY





USA.gov is the U.S. government's official web portal to all federal, state and local government web resources and services.